Regional Weather Roundup
Issued by NWS State College, PA

Home | Current Version | Previous Version | Graphics & Text | Print | Product List | Glossary Off
Versions: 1 2 3 4 5 6 7 8 9 10 11 12 13 14 15 16 17 18 19 20 21 22 23 24 25 26 27 28 29 30 31 32 33 34 35 36 37 38 39 40 41 42 43 44 45 46 47 48 49 50

114
ASUS41 KCTP 221503
RWRCTP

REGIONAL WEATHER ROUNDUP
NATIONAL WEATHER SERVICE STATE COLLEGE PA
1100 AM EDT MON MAY 22 2017

Note: "fair" indicates few or no clouds below 12,000 feet with no
significant weather and/or obstructions to visibility.

* = STATION THAT DOES NOT REPORT PRECIPITATION /E.G. RAIN...SNOW...ETC/
    THUNDER OR FOG.

PAZ002>004-007>009-013>016-020>023-029>032-221600-
WESTERN PENNSYLVANIA

CITY           SKY/WX    TMP DP  RH WIND       PRES   REMARKS
ERIE           CLOUDY    54  44  69 W18G33    30.01S
MEADVILLE      CLOUDY    57  50  77 W14       30.02R
FRANKLIN*      CLOUDY    61  52  72 W15       30.03R
NEW CASTLE     CLOUDY    60  50  69 W15G22    30.04S
BEAVER COUNTY  NOT AVBL
BUTLER*        CLOUDY    63  55  77 W12       30.04R
PITTSBURGH INT CLOUDY    61  54  77 SW10      30.04R
PITTSBURGH     CLOUDY    64  54  69 W12G20    30.03R
INDIANA*       NOT AVBL
LATROBE        CLOUDY    63  61  94 W7        30.05R
WASHINGTON CO* CLOUDY    59  52  77 W9        30.09R
$$

PAZ004>006-010>012-017>019-024>028-033>037-041-042-045-046-049>053-221600-
CENTRAL PENNSYLVANIA

CITY           SKY/WX    TMP DP  RH WIND       PRES   REMARKS
BRADFORD       CLOUDY    60  56  86 CALM      29.99S
DUBOIS         CLOUDY    62  55  77 NW7       30.00S
CLEARFIELD     CLOUDY    58  57  97 N3        30.01S FOG
JOHNSTOWN      CLOUDY    60  60 100 W8        30.03R FOG
ALTOONA        CLOUDY    64  57  78 S5        30.03S
STATE COLLEGE  CLOUDY    57  55  94 SW5       30.02F FOG
WILLIAMSPORT   CLOUDY    60  53  77 E13       30.02F
SELINSGROVE    CLOUDY    60  54  80 S10G17    30.05F
FT INDIANTOWN  CLOUDY    56  56 100 E3        30.07S
CAPITAL CITY   CLOUDY    59  55  87 E6        30.06F
HARRISBURG     LGT RAIN  59  57  93 E7        30.06F
YORK           LGT RAIN  60  58  92 SE3       30.05F
$$

PAZ038>040-043-044-047-048-054-055-060>062-067>071-221600-
EASTERN PENNSYLVANIA

CITY           SKY/WX    TMP DP  RH WIND       PRES   REMARKS
SCRANTON       CLOUDY    62  54  74 CALM      30.04F
MOUNT POCONO   FOG       50  50 100 SE8       30.08F VSB 1/4
ALLENTOWN      CLOUDY    58  52  80 E6        30.09F
QUAKERTOWN*    CLOUDY    55  55 100 E5        30.09F
READING        CLOUDY    58  56  93 SE3       30.06F
LANCASTER      LGT RAIN  59  58  96 SE6       30.07F
COATESVILLE    LGT RAIN  57  57 100 E5        30.08F
POTTSTOWN      LGT RAIN  56  55  97 VRB5      30.09F FOG
BLUE BELL      CLOUDY    55  55 100 CALM      30.09F
DOYLESTOWN     CLOUDY    55  55 100 CALM      30.08F
WILLOW GROVE   NOT AVBL
NORTH PHILA    LGT RAIN  59  57  93 E6        30.10F FOG
PHILADELPHIA   HVY RAIN  59  57  93 E3        30.08F FOG
$$




USA.gov is the U.S. government's official web portal to all federal, state and local government web resources and services.